Location: Albany
(35.0170°S, 117.8920°E)
Time: 21:02:01
(UTC+08:00)

S-56A Canister/Altair - Pass Details

Date: 22 June 2021
Orbit: 632 x 2501 km, 38.9° (Epoch: 24 July)

Event Time Altitude Azimuth Distance (km) Brightness Sun altitude
Rises 18:12:39 0° 264° (W) 6,089 13.4 -13.6°
Reaches altitude 10° 18:16:35 10° 262° (W) 5,151 12.7 -14.4°
Maximum altitude 18:32:01 77° 175° (S) 2,426 9.9 -17.4°
Enters shadow 18:41:24 24° 92° (E) 3,551 10.3 -19.2°
